EZY365G EGCC-EGAC

Flight info

Callsign EZY365G
Flight time 0h 35m
Altitude 20000
Route EKLAD1Y EKLAD Y53 WAL M146 ERDUV Z198 MASOP M148 MAGEE DCT
Aircraft A321/M-SDE3FGHIRWY/LB1

Departure

Time 2026-04-17 10:45
Airport Manchester Airport (EGCC)

Arrival

Time 2026-04-17 11:21
Airport George Best Belfast City Airport (EGAC)
Time Latitude Longitude Altitude Speed Heading
2026-04-17 10:32 53.36392 -2.27635 255 ft 0 kts 16°
2026-04-17 10:38 53.36374 -2.27643 255 ft 4 kts
2026-04-17 10:38 53.36347 -2.27642 255 ft 4 kts 343°
2026-04-17 10:38 53.36327 -2.27622 255 ft 4 kts 291°
2026-04-17 10:38 53.36324 -2.27603 255 ft 1 kts 274°
2026-04-17 10:39 53.36324 -2.27602 255 ft 0 kts 274°
2026-04-17 10:41 53.36333 -2.27695 255 ft 18 kts 282°
2026-04-17 10:41 53.36345 -2.27768 255 ft 10 kts 291°
2026-04-17 10:41 53.36386 -2.27928 255 ft 22 kts 253°
2026-04-17 10:42 53.36240 -2.28075 255 ft 20 kts 173°
2026-04-17 10:42 53.36134 -2.27945 255 ft 19 kts 140°
2026-04-17 10:42 53.36036 -2.27814 255 ft 18 kts 142°
2026-04-17 10:42 53.35931 -2.27730 255 ft 16 kts 174°
2026-04-17 10:43 53.35861 -2.27728 255 ft 6 kts 181°
2026-04-17 10:43 53.35806 -2.27707 252 ft 10 kts 147°
2026-04-17 10:43 53.35745 -2.27646 250 ft 13 kts 153°
2026-04-17 10:43 53.35627 -2.27528 246 ft 27 kts 143°
2026-04-17 10:44 53.35457 -2.27301 248 ft 35 kts 141°
2026-04-17 10:44 53.35277 -2.27187 240 ft 18 kts 196°
2026-04-17 10:44 53.35149 -2.27248 230 ft 21 kts 195°
2026-04-17 10:44 53.35006 -2.27333 226 ft 22 kts 219°
2026-04-17 10:45 53.34849 -2.27643 222 ft 68 kts 231°
2026-04-17 10:45 53.34374 -2.28630 224 ft 147 kts 231°
2026-04-17 10:45 53.33620 -2.30188 456 ft 187 kts 229°
2026-04-17 10:45 53.32801 -2.32024 1113 ft 208 kts 230°
2026-04-17 10:46 53.31978 -2.34136 1701 ft 235 kts 245°
2026-04-17 10:46 53.31857 -2.36950 2556 ft 250 kts 271°
2026-04-17 10:46 53.32201 -2.39784 3656 ft 247 kts 278°
2026-04-17 10:46 53.32470 -2.42580 4698 ft 241 kts 263°
2026-04-17 10:47 53.32197 -2.45335 5556 ft 245 kts 253°
2026-04-17 10:47 53.31744 -2.48250 5883 ft 276 kts 246°
2026-04-17 10:47 53.31138 -2.51486 5987 ft 305 kts 248°
2026-04-17 10:47 53.30462 -2.54905 5984 ft 300 kts 249°
2026-04-17 10:48 53.29874 -2.58013 6005 ft 263 kts 249°
2026-04-17 10:48 53.29359 -2.60826 6118 ft 249 kts 249°
2026-04-17 10:48 53.28857 -2.63576 6704 ft 245 kts 249°
2026-04-17 10:48 53.28360 -2.66297 7170 ft 244 kts 249°
2026-04-17 10:49 53.27862 -2.69016 7582 ft 245 kts 249°
2026-04-17 10:49 53.27360 -2.71749 8009 ft 247 kts 249°
2026-04-17 10:49 53.26850 -2.74506 8431 ft 249 kts 249°
2026-04-17 10:49 53.26342 -2.77243 8816 ft 251 kts 249°
2026-04-17 10:50 53.25923 -2.80085 9221 ft 256 kts 260°
2026-04-17 10:50 53.26074 -2.83098 9605 ft 268 kts 279°
2026-04-17 10:50 53.26925 -2.85989 9964 ft 282 kts 298°
2026-04-17 10:50 53.28100 -2.88605 10212 ft 289 kts 300°
2026-04-17 10:51 53.29325 -2.91330 10334 ft 297 kts 300°
2026-04-17 10:51 53.30582 -2.94134 10454 ft 304 kts 299°
2026-04-17 10:51 53.31862 -2.96994 10585 ft 310 kts 300°
2026-04-17 10:51 53.33169 -2.99924 10718 ft 319 kts 300°
2026-04-17 10:52 53.34504 -3.02917 10991 ft 323 kts 300°
2026-04-17 10:52 53.35850 -3.05940 11306 ft 325 kts 300°
2026-04-17 10:52 53.37206 -3.08983 11582 ft 327 kts 298°
2026-04-17 10:52 53.38565 -3.12033 11823 ft 327 kts 298°
2026-04-17 10:53 53.40068 -3.14956 12037 ft 335 kts 306°
2026-04-17 10:53 53.41705 -3.17728 12237 ft 336 kts 306°
2026-04-17 10:53 53.43350 -3.20520 12437 ft 337 kts 306°
2026-04-17 10:53 53.44997 -3.23319 12629 ft 338 kts 306°
2026-04-17 10:54 53.46649 -3.26131 12834 ft 338 kts 306°
2026-04-17 10:54 53.48303 -3.28953 13024 ft 339 kts 306°
2026-04-17 10:54 53.49957 -3.31786 13227 ft 340 kts 306°
2026-04-17 10:54 53.51617 -3.34633 13412 ft 341 kts 306°
2026-04-17 10:55 53.53280 -3.37490 13595 ft 342 kts 306°
2026-04-17 10:55 53.54946 -3.40355 13778 ft 343 kts 306°
2026-04-17 10:55 53.56617 -3.43228 13935 ft 344 kts 306°
2026-04-17 10:55 53.58188 -3.46173 14092 ft 340 kts 299°
2026-04-17 10:56 53.59577 -3.49428 14285 ft 339 kts 297°
2026-04-17 10:56 53.60921 -3.52632 14456 ft 339 kts 297°
2026-04-17 10:56 53.62284 -3.55888 14608 ft 340 kts 297°
2026-04-17 10:56 53.63649 -3.59147 14751 ft 341 kts 297°
2026-04-17 10:57 53.65025 -3.62419 14900 ft 342 kts 297°
2026-04-17 10:57 53.66402 -3.65686 15080 ft 342 kts 297°
2026-04-17 10:57 53.67777 -3.68963 15217 ft 342 kts 297°
2026-04-17 10:57 53.69152 -3.72251 15381 ft 343 kts 296°
2026-04-17 10:58 53.70529 -3.75552 15494 ft 344 kts 296°
2026-04-17 10:58 53.71906 -3.78864 15623 ft 345 kts 296°
2026-04-17 10:58 53.73284 -3.82176 15748 ft 346 kts 296°
2026-04-17 10:58 53.74201 -3.84379 15833 ft 346 kts 297°
2026-04-17 10:59 53.75589 -3.87717 15961 ft 347 kts 296°
2026-04-17 10:59 53.76975 -3.91055 16089 ft 347 kts 296°
2026-04-17 10:59 53.78364 -3.94400 16208 ft 348 kts 297°
2026-04-17 10:59 53.79752 -3.97752 16333 ft 348 kts 296°
2026-04-17 11:00 53.81135 -4.01105 16462 ft 348 kts 296°
2026-04-17 11:00 53.82519 -4.04472 16592 ft 348 kts 296°
2026-04-17 11:00 53.83905 -4.07845 16729 ft 349 kts 296°
2026-04-17 11:00 53.85306 -4.11204 16854 ft 351 kts 299°
2026-04-17 11:01 53.86949 -4.14310 16986 ft 359 kts 309°
2026-04-17 11:01 53.88916 -4.16998 17117 ft 367 kts 319°
2026-04-17 11:01 53.91158 -4.19157 17256 ft 375 kts 328°
2026-04-17 11:01 53.93595 -4.20812 17432 ft 378 kts 333°
2026-04-17 11:02 53.96023 -4.22403 17561 ft 378 kts 332°
2026-04-17 11:02 53.98468 -4.24022 17698 ft 378 kts 332°
2026-04-17 11:02 54.00917 -4.25653 17833 ft 378 kts 332°
2026-04-17 11:02 54.03390 -4.27307 17588 ft 384 kts 332°
2026-04-17 11:03 54.05872 -4.28966 17101 ft 383 kts 332°
2026-04-17 11:03 54.08349 -4.30617 16661 ft 382 kts 332°
2026-04-17 11:03 54.10817 -4.32273 16349 ft 379 kts 330°
2026-04-17 11:03 54.13146 -4.34286 16135 ft 372 kts 321°
2026-04-17 11:04 54.15244 -4.36770 15989 ft 364 kts 313°
2026-04-17 11:04 54.17092 -4.39664 15889 ft 357 kts 305°
2026-04-17 11:04 54.18663 -4.42893 15843 ft 351 kts 297°
2026-04-17 11:04 54.20058 -4.46304 15822 ft 350 kts 297°
2026-04-17 11:05 54.21453 -4.49714 15843 ft 350 kts 297°
2026-04-17 11:05 54.22851 -4.53120 15867 ft 350 kts 297°
2026-04-17 11:05 54.24251 -4.56527 15877 ft 350 kts 297°
2026-04-17 11:05 54.25649 -4.59934 15879 ft 350 kts 297°
2026-04-17 11:06 54.27046 -4.63348 15891 ft 350 kts 297°
2026-04-17 11:06 54.28440 -4.66770 15912 ft 350 kts 297°
2026-04-17 11:06 54.29832 -4.70196 15930 ft 350 kts 297°
2026-04-17 11:06 54.31223 -4.73624 15952 ft 350 kts 297°
2026-04-17 11:07 54.32599 -4.77011 15344 ft 343 kts 296°
2026-04-17 11:07 54.33936 -4.80301 14455 ft 339 kts 296°
2026-04-17 11:07 54.35273 -4.83605 13559 ft 336 kts 296°
2026-04-17 11:07 54.36595 -4.86877 12611 ft 332 kts 296°
2026-04-17 11:08 54.37901 -4.90116 11698 ft 328 kts 296°
2026-04-17 11:08 54.39187 -4.93310 10818 ft 323 kts 297°
2026-04-17 11:08 54.40458 -4.96471 9982 ft 319 kts 297°
2026-04-17 11:08 54.41694 -4.99544 9595 ft 300 kts 297°
2026-04-17 11:09 54.42848 -5.02399 9138 ft 285 kts 297°
2026-04-17 11:09 54.43964 -5.05178 8472 ft 280 kts 297°
2026-04-17 11:09 54.45059 -5.07908 7783 ft 276 kts 297°
2026-04-17 11:10 54.47218 -5.13248 6459 ft 268 kts 298°
2026-04-17 11:10 54.48274 -5.15864 5757 ft 265 kts 298°
2026-04-17 11:10 54.49321 -5.18450 5167 ft 261 kts 298°
2026-04-17 11:10 54.50384 -5.20995 5029 ft 265 kts 303°
2026-04-17 11:11 54.51698 -5.23288 5033 ft 272 kts 314°
2026-04-17 11:11 54.53191 -5.25307 5035 ft 273 kts 315°
2026-04-17 11:11 54.54685 -5.27327 5026 ft 273 kts 315°
2026-04-17 11:11 54.56178 -5.29352 5027 ft 273 kts 315°
2026-04-17 11:12 54.57670 -5.31380 5027 ft 273 kts 315°
2026-04-17 11:12 54.59160 -5.33406 5027 ft 273 kts 315°
2026-04-17 11:12 54.60650 -5.35436 5027 ft 273 kts 315°
2026-04-17 11:12 54.62117 -5.37437 5027 ft 273 kts 315°
2026-04-17 11:13 54.63604 -5.39468 5034 ft 273 kts 315°
2026-04-17 11:13 54.65097 -5.41507 5022 ft 273 kts 314°
2026-04-17 11:13 54.66582 -5.43539 5011 ft 272 kts 314°
2026-04-17 11:13 54.68064 -5.45574 5008 ft 272 kts 314°
2026-04-17 11:14 54.69539 -5.47605 4934 ft 269 kts 314°
2026-04-17 11:14 54.70996 -5.49603 4259 ft 266 kts 314°
2026-04-17 11:14 54.72444 -5.51595 3531 ft 265 kts 314°
2026-04-17 11:14 54.73875 -5.53563 3094 ft 262 kts 314°
2026-04-17 11:15 54.75306 -5.55532 2991 ft 263 kts 314°
2026-04-17 11:15 54.76733 -5.57518 2999 ft 259 kts 311°
2026-04-17 11:15 54.77735 -5.59799 2996 ft 224 kts 285°
2026-04-17 11:15 54.78071 -5.62325 3003 ft 211 kts 263°
2026-04-17 11:16 54.77845 -5.64692 3019 ft 190 kts 245°
2026-04-17 11:16 54.77244 -5.66676 3007 ft 184 kts 236°
2026-04-17 11:16 54.76610 -5.68587 3005 ft 183 kts 237°
2026-04-17 11:16 54.75870 -5.70299 3007 ft 167 kts 220°
2026-04-17 11:17 54.75001 -5.71387 2961 ft 145 kts 214°
2026-04-17 11:17 54.74200 -5.72359 2855 ft 137 kts 215°
2026-04-17 11:17 54.73431 -5.73289 2680 ft 134 kts 214°
2026-04-17 11:17 54.72666 -5.74213 2521 ft 134 kts 214°
2026-04-17 11:18 54.71901 -5.75135 2345 ft 134 kts 213°
2026-04-17 11:18 54.71136 -5.76056 2165 ft 134 kts 213°
2026-04-17 11:18 54.70376 -5.76971 1971 ft 133 kts 213°
2026-04-17 11:18 54.69622 -5.77877 1795 ft 132 kts 213°
2026-04-17 11:19 54.68869 -5.78783 1621 ft 133 kts 213°
2026-04-17 11:19 54.68108 -5.79697 1421 ft 136 kts 213°
2026-04-17 11:19 54.67342 -5.80617 1237 ft 135 kts 213°
2026-04-17 11:19 54.66558 -5.81558 1045 ft 134 kts 212°
2026-04-17 11:20 54.65837 -5.82425 859 ft 123 kts 212°
2026-04-17 11:20 54.65155 -5.83242 703 ft 116 kts 215°
2026-04-17 11:20 54.64493 -5.84035 532 ft 117 kts 212°
2026-04-17 11:20 54.63820 -5.84842 382 ft 119 kts 213°
2026-04-17 11:21 54.63126 -5.85672 223 ft 128 kts 213°
2026-04-17 11:21 54.62403 -5.86539 59 ft 123 kts 212°
2026-04-17 11:21 54.61920 -5.87109 25 ft 22 kts 216°
2026-04-17 11:21 54.61857 -5.87189 25 ft 11 kts 216°
2026-04-17 11:22 54.61689 -5.87391 26 ft 40 kts 214°
2026-04-17 11:22 54.61435 -5.87687 20 ft 39 kts 215°
2026-04-17 11:22 54.61294 -5.87748 22 ft 16 kts 133°
2026-04-17 11:22 54.61264 -5.87626 23 ft 9 kts 79°
2026-04-17 11:23 54.61301 -5.87546 24 ft 8 kts 41°
2026-04-17 11:23 54.61346 -5.87490 23 ft 8 kts 35°
2026-04-17 11:23 54.61389 -5.87431 23 ft 7 kts 49°
2026-04-17 11:23 54.61419 -5.87368 23 ft 7 kts 47°
2026-04-17 11:24 54.61454 -5.87316 23 ft 6 kts 37°
2026-04-17 11:24 54.61488 -5.87275 24 ft 6 kts 34°
2026-04-17 11:24 54.61524 -5.87233 23 ft 6 kts 35°
2026-04-17 11:24 54.61532 -5.87202 23 ft 2 kts 84°
2026-04-17 11:25 54.61530 -5.87186 23 ft 0 kts 104°
2026-04-17 11:25 54.61527 -5.87178 23 ft 3 kts 121°
2026-04-17 11:25 54.61505 -5.87150 24 ft 0 kts 153°
2026-04-17 11:25 54.61504 -5.87149 23 ft 0 kts 152°
2026-04-17 11:27 54.61499 -5.87145 23 ft 0 kts 153°